Temp
-10 -10 -9 -10 -10 -10 -10 -9 -9 -10 -10 -10 -10 -10 -10 -10 -10 -10 -9 -9 -10 -9 -10 -11 -11 -11 -11 -11 -10 -11 -11 -11 -11 -11 -11 -11 -11 -11 -11 -11 -11 -11 -11 -11
-11 -9 -9 -10 -10 -10 -10 -10 -10 -10 -10 -10 -10 -10 -10 -10 -9 -9 -10 -9 -9 -9 -10 -11 -11 -12 -12 -12 -11 -10 -11 -11 -11 -11 -11 -11 -11 -11 -11 -11 -11 -11 -11 -11
-11 -10 -10 -11 -11 -10 -10 -10 -10 -11 -11 -10 -10 -9 -10 -10 -10 -9 -9 -10 -9 -9 -10 -11 -11 -12 -11 -12 -12 -11 -11 -11 -11 -11 -12 -12 -12 -11 -11 -11 -11 -11 -11 -11
-11 -11 -11 -11 -11 -11 -10 -10 -11 -11 -11 -10 -11 -8 -9 -9 -11 -10 -9 -10 -9 -10 -10 -11 -11 -12 -12 -12 -12 -12 -12 -11 -11 -12 -12 -12 -12 -12 -12 -12 -11 -11 -11 -11
-10 -10 -11 -11 -10 -11 -10 -11 -11 -11 -11 -11 -10 -10 -8 -9 -10 -10 -10 -10 -10 -10 -10 -11 -11 -11 -12 -12 -12 -12 -12 -12 -12 -12 -12 -12 -12 -12 -12 -11 -11 -11 -11 -11
-11 -11 -12 -11 -11 -11 -12 -12 -12 -12 -12 -10 -10 -10 -8 -9 -10 -10 -11 -10 -10 -10 -10 -11 -11 -11 -12 -12 -12 -12 -12 -12 -12 -12 -12 -12 -12 -12 -11 -11 -11 -11 -11 -11
-11 -11 -11 -11 -11 -11 -11 -11 -12 -12 -12 -9 -11 -10 -9 -10 -10 -10 -11 -11 -10 -9 -10 -10 -11 -12 -12 -12 -12 -12 -12 -12 -12 -12 -12 -12 -12 -12 -12 -12 -12 -12 -12 -11
-12 -11 -11 -10 -11 -11 -12 -12 -12 -12 -12 -10 -11 -9 -9 -10 -9 -10 -10 -10 -10 -9 -10 -10 -10 -11 -11 -11 -12 -12 -12 -12 -12 -12 -12 -12 -12 -12 -12 -12 -12 -12 -12 -12
-12 -12 -11 -11 -12 -12 -12 -13 -13 -13 -13 -12 -11 -9 -10 -9 -9 -10 -10 -10 -11 -10 -11 -10 -10 -11 -11 -11 -11 -12 -12 -12 -12 -12 -12 -12 -12 -12 -12 -12 -12 -12 -12 -12
-12 -12 -12 -12 -13 -13 -14 -14 -14 -14 -13 -12 -10 -10 -9 -10 -10 -10 -11 -11 -11 -11 -11 -11 -11 -11 -11 -11 -12 -12 -12 -11 -11 -12 -12 -12 -12 -12 -12 -12 -12 -12 -12 -12
-13 -13 -12 -13 -12 -12 -13 -14 -13 -14 -13 -12 -10 -9 -10 -10 -9 -10 -10 -11 -11 -11 -11 -11 -11 -11 -11 -11 -11 -11 -11 -12 -12 -12 -12 -12 -12 -12 -12 -12 -12 -12 -12 -13
-11 -12 -13 -13 -13 -14 -15 -15 -15 -14 -12 -12 -12 -7 -10 -10 -10 -10 -11 -11 -11 -11 -11 -11 -12 -11 -12 -12 -12 -12 -12 -12 -12 -12 -12 -12 -12 -12 -12 -12 -13 -13 -13 -13
-12 -12 -13 -13 -13 -12 -11 -12 -13 -13 -14 -11 -12 -7 -9 -9 -10 -11 -12 -11 -12 -12 -11 -11 -12 -12 -12 -12 -12 -13 -13 -13 -13 -13 -13 -13 -12 -13 -13 -13 -13 -13 -13 -13
-15 -14 -14 -11 -10 -13 -13 -13 -13 -14 -14 -10 -9 -10 -10 -10 -11 -12 -12 -12 -11 -12 -12 -12 -12 -12 -12 -12 -12 -13 -13 -13 -13 -13 -13 -13 -13 -13 -13 -14 -13 -13 -13 -14
-15 -14 -12 -11 -12 -13 -13 -14 -14 -14 -10 -12 -8 -10 -11 -12 -11 -11 -11 -11 -11 -11 -11 -11 -12 -12 -12 -13 -13 -13 -13 -13 -13 -13 -13 -13 -14 -14 -14 -14 -14 -14 -14 -15
-15 -13 -13 -12 -13 -14 -13 -13 -12 -11 -11 -9 -10 -9 -10 -11 -11 -11 -11 -12 -11 -11 -11 -12 -12 -12 -12 -13 -13 -13 -13 -13 -13 -14 -14 -14 -14 -14 -14 -14 -14 -15 -15 -15
-16 -14 -14 -12 -14 -14 -14 -9 -11 -11 -11 -10 -9 -10 -12 -11 -11 -11 -12 -12 -12 -12 -12 -11 -12 -12 -12 -13 -13 -13 -13 -13 -14 -14 -14 -14 -14 -14 -15 -15 -15 -15 -15 -16
-16 -15 -15 -14 -15 -15 -8 -11 -11 -11 -11 -11 -11 -11 -12 -12 -12 -11 -11 -11 -11 -12 -12 -12 -12 -13 -13 -13 -13 -13 -13 -14 -14 -14 -14 -14 -14 -15 -15 -15 -16 -16 -16 -17
-16 -16 -16 -16 -15 -12 -11 -10 -12 -12 -11 -12 -12 -13 -12 -12 -12 -10 -11 -12 -12 -12 -12 -12 -12 -12 -12 -12 -13 -13 -14 -14 -14 -14 -14 -14 -16 -16 -16 -16 -16 -16 -17 -18
-16 -17 -16 -16 -16 -12 -11 -12 -13 -14 -9 -12 -13 -12 -12 -12 -10 -11 -12 -12 -12 -12 -12 -12 -12 -13 -13 -13 -13 -13 -14 -14 -14 -14 -15 -15 -16 -16 -16 -16 -16 -17 -18 -18
-16 -16 -16 -15 -15 -13 -13 -13 -13 -12 -11 -13 -13 -13 -12 -12 -12 -12 -12 -11 -12 -12 -12 -12 -12 -12 -13 -13 -13 -13 -13 -14 -14 -15 -15 -15 -16 -16 -16 -17 -17 -18 -18 -19
-15 -15 -15 -15 -15 -14 -13 -13 -13 -13 -13 -13 -13 -13 -13 -12 -11 -12 -12 -13 -13 -13 -13 -13 -13 -13 -13 -13 -13 -14 -14 -15 -15 -15 -15 -16 -16 -16 -17 -17 -18 -19 -19 -19
-17 -16 -15 -15 -14 -15 -15 -15 -15 -14 -14 -13 -12 -13 -13 -13 -13 -13 -13 -13 -13 -13 -13 -13 -13 -13 -13 -14 -14 -14 -15 -16 -16 -16 -16 -16 -16 -17 -18 -18 -19 -19 -19 -20
-17 -17 -16 -16 -15 -15 -15 -15 -14 -14 -14 -14 -13 -13 -13 -13 -14 -14 -14 -14 -13 -13 -13 -13 -13 -14 -14 -15 -15 -15 -16 -16 -16 -16 -16 -17 -18 -18 -19 -19 -19 -19 -20 -21
-18 -17 -17 -16 -16 -16 -16 -15 -15 -14 -15 -14 -14 -14 -14 -14 -14 -14 -14 -14 -14 -14 -14 -14 -14 -14 -15 -15 -15 -16 -16 -16 -17 -17 -18 -18 -19 -19 -19 -20 -20 -20 -21 -23
-18 -17 -17 -17 -17 -17 -16 -16 -15 -15 -15 -14 -14 -14 -14 -14 -14 -14 -14 -14 -14 -15 -15 -15 -15 -15 -15 -16 -16 -16 -17 -17 -18 -18 -19 -19 -19 -20 -20 -20 -21 -22 -23 -25
Height
5792 5796 5800 5810 5811 5813 5816 5815 5816 5821 5822 5814 5814 5810 5816 5813 5811 5812 5814 5815 5819 5822 5823 5824 5824 5826 5827 5827 5829 5828 5828 5829 5829 5828 5829 5827 5828 5827 5827 5827 5826 5824 5823 5821
5783 5788 5795 5800 5801 5804 5806 5807 5809 5813 5814 5805 5805 5800 5808 5809 5805 5804 5805 5808 5811 5814 5816 5817 5817 5818 5818 5820 5824 5823 5821 5821 5822 5821 5822 5821 5821 5821 5821 5820 5819 5818 5818 5816
5771 5786 5785 5788 5792 5793 5796 5799 5804 5803 5804 5796 5794 5788 5799 5805 5799 5798 5796 5798 5804 5806 5808 5809 5810 5810 5812 5813 5815 5816 5815 5814 5814 5815 5814 5813 5814 5815 5814 5813 5812 5811 5810 5807
5758 5768 5769 5775 5781 5786 5789 5794 5793 5794 5791 5786 5787 5774 5790 5796 5792 5791 5790 5790 5795 5799 5800 5802 5803 5804 5805 5806 5807 5808 5808 5807 5807 5807 5807 5806 5807 5807 5807 5805 5804 5802 5798 5795
5753 5755 5760 5766 5778 5777 5781 5784 5783 5781 5778 5774 5775 5774 5773 5787 5788 5784 5781 5782 5785 5788 5792 5795 5795 5796 5798 5799 5800 5800 5799 5798 5798 5798 5799 5799 5799 5799 5797 5796 5794 5791 5788 5785
5741 5743 5744 5755 5760 5765 5769 5770 5769 5769 5769 5762 5765 5770 5765 5774 5777 5778 5775 5774 5775 5778 5781 5785 5786 5788 5790 5792 5793 5792 5792 5791 5791 5790 5790 5790 5790 5790 5788 5786 5783 5780 5776 5772
5722 5726 5732 5741 5747 5753 5756 5756 5756 5758 5758 5749 5758 5755 5751 5762 5764 5767 5769 5767 5766 5769 5771 5774 5777 5779 5781 5784 5784 5784 5784 5784 5784 5784 5784 5783 5780 5778 5776 5774 5772 5769 5765 5761
5711 5717 5724 5730 5735 5742 5747 5748 5749 5747 5749 5748 5744 5732 5736 5751 5755 5759 5760 5757 5757 5759 5763 5765 5768 5770 5773 5774 5775 5775 5775 5775 5774 5775 5774 5773 5771 5769 5767 5765 5762 5758 5753 5748
5696 5702 5710 5715 5723 5730 5731 5730 5746 5742 5742 5731 5724 5727 5730 5738 5748 5750 5750 5747 5749 5749 5752 5755 5759 5761 5763 5765 5765 5765 5765 5766 5766 5766 5764 5763 5762 5761 5759 5755 5751 5746 5741 5736
5684 5690 5697 5703 5702 5710 5714 5726 5725 5727 5725 5719 5713 5717 5716 5729 5737 5740 5741 5739 5739 5739 5742 5745 5749 5752 5753 5754 5754 5755 5756 5757 5757 5756 5754 5753 5752 5750 5748 5744 5740 5735 5728 5723
5670 5675 5680 5679 5684 5693 5703 5706 5711 5714 5719 5709 5704 5700 5710 5718 5724 5730 5731 5730 5730 5731 5733 5735 5738 5740 5742 5744 5746 5747 5748 5747 5746 5745 5743 5743 5741 5739 5736 5732 5726 5720 5715 5710
5658 5656 5659 5668 5674 5680 5683 5692 5696 5698 5701 5700 5699 5679 5704 5708 5717 5721 5721 5722 5723 5724 5724 5725 5727 5729 5731 5734 5736 5737 5736 5736 5735 5734 5733 5731 5730 5727 5724 5718 5713 5707 5702 5697
5639 5634 5641 5648 5656 5662 5664 5675 5681 5686 5689 5684 5685 5677 5695 5700 5710 5713 5713 5714 5714 5714 5714 5715 5716 5720 5722 5724 5725 5726 5725 5724 5723 5723 5721 5721 5718 5715 5710 5705 5699 5694 5688 5682
5613 5618 5623 5633 5649 5651 5654 5661 5668 5672 5674 5671 5667 5677 5684 5693 5698 5702 5701 5701 5702 5703 5704 5706 5708 5710 5711 5713 5714 5715 5714 5714 5713 5712 5711 5708 5705 5700 5695 5691 5685 5679 5672 5666
5597 5605 5617 5624 5629 5634 5638 5641 5649 5651 5654 5653 5659 5666 5677 5680 5684 5688 5690 5692 5693 5694 5695 5695 5696 5699 5700 5702 5703 5703 5702 5702 5700 5699 5697 5694 5691 5687 5683 5675 5669 5664 5658 5651
5587 5596 5602 5606 5616 5618 5621 5625 5630 5637 5642 5642 5645 5650 5659 5668 5675 5677 5679 5681 5683 5684 5684 5684 5687 5689 5691 5690 5690 5690 5689 5688 5686 5686 5684 5681 5677 5672 5665 5661 5656 5650 5642 5634
5576 5585 5590 5594 5603 5603 5601 5611 5617 5624 5629 5635 5635 5649 5656 5656 5659 5664 5665 5667 5669 5670 5673 5677 5677 5677 5678 5677 5676 5676 5676 5675 5674 5673 5670 5665 5661 5657 5652 5646 5640 5633 5626 5618
5564 5571 5575 5582 5586 5581 5597 5598 5607 5613 5620 5625 5627 5632 5641 5645 5646 5648 5650 5655 5659 5662 5665 5665 5663 5664 5664 5665 5665 5665 5664 5662 5661 5659 5656 5652 5647 5642 5636 5631 5626 5618 5612 5605
5552 5560 5563 5566 5569 5577 5582 5589 5599 5602 5610 5616 5616 5619 5622 5627 5630 5634 5640 5645 5647 5649 5650 5649 5650 5653 5652 5652 5652 5652 5651 5649 5647 5645 5641 5636 5631 5626 5622 5617 5611 5605 5598 5591
5541 5546 5551 5554 5558 5561 5569 5580 5586 5591 5592 5605 5607 5611 5613 5618 5618 5629 5629 5631 5633 5634 5635 5638 5639 5638 5639 5640 5640 5639 5638 5636 5633 5630 5625 5621 5617 5613 5607 5602 5597 5591 5584 5576
5527 5532 5536 5542 5547 5554 5560 5569 5572 5581 5595 5590 5592 5599 5602 5606 5610 5614 5615 5618 5621 5624 5626 5625 5625 5626 5626 5625 5625 5624 5622 5620 5617 5614 5610 5607 5603 5598 5593 5589 5583 5577 5570 5561
5514 5522 5528 5533 5539 5545 5550 5555 5563 5569 5572 5574 5579 5587 5593 5597 5599 5602 5604 5607 5610 5611 5612 5613 5614 5614 5614 5613 5612 5609 5608 5605 5602 5600 5597 5593 5589 5585 5580 5575 5569 5562 5554 5547
5500 5509 5518 5525 5533 5538 5542 5547 5552 5557 5561 5565 5569 5576 5581 5586 5590 5592 5594 5596 5598 5600 5601 5602 5601 5601 5600 5599 5597 5595 5593 5591 5589 5586 5583 5579 5575 5570 5565 5559 5553 5546 5539 5531
5491 5499 5504 5513 5523 5527 5530 5534 5538 5545 5550 5554 5558 5562 5567 5571 5576 5579 5583 5586 5587 5587 5588 5589 5588 5587 5585 5583 5582 5580 5579 5577 5574 5571 5568 5564 5560 5555 5549 5544 5538 5531 5523 5515
5481 5487 5496 5503 5510 5515 5518 5523 5528 5534 5540 5544 5547 5550 5555 5558 5562 5565 5568 5571 5572 5573 5574 5575 5574 5572 5570 5569 5568 5567 5564 5562 5559 5557 5553 5549 5545 5539 5534 5528 5521 5514 5507 5502
5472 5479 5486 5494 5498 5502 5508 5512 5518 5524 5527 5531 5535 5538 5542 5545 5548 5551 5553 5554 5555 5556 5556 5556 5557 5556 5555 5554 5553 5551 5549 5547 5544 5540 5537 5533 5529 5523 5517 5512 5506 5499 5492 5486
Wind_Speed
52 50 49 38 37 37 35 39 46 31 35 46 44 45 34 34 33 32 29 34 28 25 24 25 26 28 27 27 27 26 24 26 26 26 27 27 28 30 32 31 31 34 34 36
54 50 48 42 41 41 41 40 41 37 34 45 47 51 38 34 34 34 32 33 29 25 26 24 27 29 29 28 24 25 26 27 29 28 27 29 29 31 31 32 35 37 37 39
55 50 51 46 44 45 44 42 38 41 37 49 51 56 43 30 36 34 34 37 29 24 23 23 26 29 28 28 26 24 27 32 32 30 31 32 32 32 34 35 37 38 40 44
60 58 61 54 51 46 46 42 42 42 44 52 51 57 42 30 32 33 33 35 32 28 26 25 26 27 28 28 26 27 31 34 36 34 32 35 34 35 37 38 38 40 43 47
64 64 63 56 50 51 50 44 43 47 49 55 57 57 51 31 24 29 33 32 32 30 28 27 26 29 29 28 26 29 32 36 37 35 35 36 36 37 39 40 41 44 47 49
64 65 64 60 58 54 49 49 48 50 50 60 58 52 45 37 31 25 33 32 34 31 28 29 30 31 31 32 30 32 33 36 37 37 37 36 37 39 41 43 46 48 50 53
71 71 70 65 60 57 57 56 56 57 60 57 56 57 55 44 34 28 29 33 36 34 33 31 32 32 34 33 32 32 35 36 39 39 39 39 40 41 43 46 47 50 54 57
78 76 73 71 68 64 60 60 58 60 62 60 62 62 62 43 30 26 31 34 38 39 34 33 34 33 33 32 32 33 34 36 38 40 41 42 43 44 45 48 51 54 58 59
79 80 79 75 70 66 62 63 55 55 60 66 66 62 58 43 27 24 28 36 35 39 36 35 34 34 34 34 34 36 37 40 41 42 43 43 45 48 50 53 56 58 60 62
68 72 74 79 77 74 70 64 59 56 63 67 63 62 58 45 35 24 27 32 34 37 35 35 33 32 35 36 37 39 40 41 41 44 45 46 48 51 52 56 59 60 63 63
75 76 77 80 77 74 71 69 68 63 59 65 63 63 58 47 37 28 31 30 34 35 34 34 33 35 38 38 37 39 39 41 42 45 47 49 51 53 55 58 61 62 65 67
67 75 79 79 79 75 72 69 70 60 61 69 72 64 55 49 31 22 22 24 30 31 30 31 34 36 38 38 39 41 41 41 44 48 49 52 53 55 57 59 62 65 66 70
68 76 73 80 82 79 75 71 66 63 66 70 74 61 56 50 34 33 27 23 29 33 35 35 35 36 37 38 39 41 43 45 47 50 52 52 54 56 58 60 64 66 70 73
61 66 68 69 64 67 70 67 63 66 70 64 64 63 57 47 38 31 29 30 34 36 36 37 38 40 40 41 42 42 45 47 48 50 52 54 55 55 58 62 66 69 70 71
57 65 69 70 68 68 62 62 63 64 54 60 53 52 49 48 42 37 36 34 37 38 40 42 43 41 40 38 40 43 44 46 49 51 52 53 55 58 61 65 68 69 69 70
57 64 56 60 59 63 57 57 59 58 54 56 55 50 48 41 37 35 32 33 36 40 41 41 40 38 38 39 40 43 45 48 49 51 52 53 56 59 62 65 66 68 69 71
53 57 55 59 53 55 60 58 55 52 52 51 48 40 35 35 38 37 36 36 37 39 39 37 38 40 41 41 43 45 47 49 51 52 52 55 58 59 60 63 66 67 70 73
54 50 50 52 55 58 53 52 47 42 37 41 41 41 36 36 36 40 42 40 39 39 38 38 41 43 43 44 46 46 48 49 48 50 54 56 57 59 62 64 66 69 73 76
52 50 51 55 60 62 54 50 42 42 38 35 36 34 37 38 42 46 40 38 39 38 42 45 47 45 46 49 49 49 49 48 50 53 55 56 57 61 63 65 68 70 75 79
47 49 49 55 59 54 50 49 39 40 44 40 40 32 31 35 39 35 34 40 43 45 49 46 44 45 45 46 47 49 51 52 53 56 56 57 59 62 63 66 69 73 77 78
62 59 54 49 49 50 52 47 45 42 37 32 40 39 38 38 33 33 40 43 43 44 43 43 44 43 45 49 49 51 53 54 56 58 58 59 59 61 64 68 73 75 76 78
55 57 56 50 51 49 49 47 44 44 39 40 42 41 35 36 38 40 39 40 40 42 43 45 47 48 50 52 53 55 55 56 58 60 59 58 60 63 68 72 74 74 75 76
55 59 65 58 52 51 51 51 52 45 44 46 49 46 40 40 44 43 43 45 45 46 47 50 50 50 51 52 54 55 54 54 56 55 57 58 62 67 70 72 73 72 73 72
55 60 60 61 59 54 53 44 48 43 47 47 49 49 49 47 45 45 47 49 51 52 53 53 51 52 54 53 53 51 51 54 54 56 59 63 66 67 69 71 70 71 70 68
46 52 58 58 59 58 55 54 52 50 50 52 52 51 52 54 52 49 48 46 46 46 48 50 50 50 48 48 49 50 50 53 56 60 62 65 66 68 68 67 68 69 68 64
44 39 46 54 60 58 54 54 55 57 61 60 61 59 55 53 55 54 52 49 49 47 46 46 45 45 46 48 50 51 53 57 59 61 63 64 66 65 66 67 66 66 62 55
Wind_Direction
246 247 251 256 257 260 255 261 267 269 280 283 286 285 289 295 293 286 269 259 261 264 255 254 253 252 249 249 255 258 265 268 259 260 260 263 262 261 263 266 267 269 272 276
245 249 254 252 253 257 259 259 266 272 275 278 281 281 284 292 288 285 278 260 254 253 253 256 253 253 254 250 243 256 266 262 261 266 266 262 262 263 266 268 270 274 278 280
246 249 251 251 251 252 256 259 262 269 265 273 279 277 280 289 288 281 279 271 257 253 247 255 255 256 259 257 254 247 261 271 270 267 268 269 269 271 274 275 276 280 282 285
241 241 246 248 250 251 257 262 263 264 265 267 271 276 280 287 283 278 277 274 268 255 245 244 252 252 251 256 261 258 259 265 268 269 270 270 272 276 277 277 280 283 287 290
244 245 249 250 257 253 258 256 260 260 261 269 272 278 285 276 282 277 271 265 263 256 249 241 242 248 254 259 259 256 257 259 264 267 268 273 276 276 276 279 280 285 288 292
243 243 243 249 248 248 249 250 252 258 261 268 273 283 273 281 280 270 272 266 257 251 248 240 236 240 249 260 256 254 256 254 258 261 264 267 269 273 278 280 282 286 291 294
238 242 244 244 246 247 246 248 252 254 260 274 279 281 273 281 275 273 266 263 259 250 242 237 233 237 246 255 256 256 256 257 259 260 263 264 265 270 275 279 285 290 294 295
244 244 247 248 247 251 256 254 255 260 265 275 274 268 276 276 269 280 263 256 254 255 248 243 242 242 245 250 253 252 254 255 258 262 263 264 269 275 280 285 288 290 291 293
245 247 246 247 249 251 252 249 261 258 265 268 267 269 277 276 280 283 262 262 258 251 249 245 244 244 245 247 248 252 253 255 259 262 264 271 277 280 283 286 289 292 294 296
242 247 250 251 251 250 249 250 249 249 257 263 269 271 270 280 283 272 265 262 252 250 249 251 253 250 247 247 248 251 253 257 260 263 267 270 275 279 284 287 290 294 296 300
244 243 244 246 249 253 253 250 252 250 253 262 267 266 273 278 280 268 266 256 253 249 250 249 251 250 249 250 252 254 257 258 259 262 267 273 277 282 285 287 293 296 299 299
242 241 242 248 251 252 252 248 252 250 245 255 264 259 272 277 283 287 269 249 249 246 247 248 248 250 251 254 257 258 258 259 260 263 269 273 278 284 287 291 295 295 297 299
241 241 244 244 245 248 254 255 253 251 243 249 255 260 270 269 276 280 272 250 246 246 245 244 246 250 251 252 253 254 256 258 260 265 271 279 284 288 293 294 292 295 297 299
239 240 243 244 251 255 259 260 255 254 253 256 254 261 266 271 274 268 259 254 248 241 242 244 246 249 251 252 252 252 255 259 265 271 278 282 286 289 289 291 293 294 297 300
238 243 246 248 250 251 249 247 250 251 250 250 253 254 262 265 263 255 247 250 251 249 246 245 247 249 251 254 254 255 260 264 268 274 279 284 288 289 292 290 291 296 298 300
236 242 242 244 239 243 245 247 249 246 246 245 248 249 250 260 257 252 250 252 248 250 253 253 253 254 256 254 255 259 263 267 272 278 284 288 288 286 287 293 295 295 299 303
235 239 241 245 238 233 240 244 248 247 246 245 246 257 259 254 246 249 249 247 243 245 248 253 254 254 256 258 259 262 267 272 275 279 285 287 288 289 289 290 294 299 302 304
233 232 235 241 240 236 243 245 248 249 241 241 246 254 253 246 241 241 246 251 250 255 257 253 252 253 256 260 264 269 272 275 280 285 288 288 287 288 290 294 299 301 303 303
226 232 239 239 241 238 237 241 242 246 238 233 242 247 243 231 236 239 248 254 255 256 257 257 258 262 265 268 270 273 277 282 286 287 287 288 287 291 295 297 299 300 299 300
227 235 239 243 242 238 230 237 236 237 231 226 243 245 249 249 245 250 253 249 252 253 255 260 265 268 271 274 277 282 284 286 289 291 291 290 290 293 295 296 297 297 297 301
209 224 236 243 246 239 238 237 241 236 241 249 239 238 243 247 254 253 254 253 257 260 262 262 264 268 274 277 281 283 285 288 290 290 288 288 290 292 293 294 294 296 300 303
207 209 219 225 236 248 241 241 245 248 247 251 253 245 246 246 252 256 257 254 256 256 257 262 268 274 276 280 283 283 283 284 285 285 286 288 289 290 291 292 295 298 300 302
234 225 218 226 226 240 248 260 254 249 249 254 252 249 244 245 250 255 257 255 254 256 262 268 274 276 281 282 281 280 283 282 282 285 285 286 287 288 289 292 295 297 301 306
234 233 235 228 229 240 247 248 247 254 253 250 249 250 249 254 260 259 261 262 263 266 269 275 278 277 278 278 278 279 279 280 281 282 284 284 285 287 290 292 296 300 305 308
243 239 235 236 235 249 256 251 250 252 258 259 261 261 260 262 263 268 268 268 268 269 272 276 275 275 277 278 278 277 277 279 280 281 281 282 285 287 290 296 301 303 306 308
235 235 239 240 240 243 246 246 247 253 261 265 263 263 266 267 268 269 269 271 273 273 272 272 275 279 278 274 273 274 276 278 279 279 280 283 286 291 295 300 302 305 304 302